Find Starlink 33893

NORAD ID: 64253 Int'l Des: 2025-119 Owner: SPXS Country: US Constellation: starlink operational
LEOCIRCULAR

現在のビュー

3D地球を読み込み中...

About Starlink 33893

Starlink 33893 (NORAD 64253) is a starlink constellation satellite (v2 mini) launched Jun 3, 2025 by SPXS of US. It operates in LEO, CIRCULAR orbit with a mass of 575.00 kg.

次回通過

Passes for default location (London). Set your location on the main map for personalized predictions.

高度履歴

Loading altitude history...

軌道要素

1 64253U 25119W 26237.88761228 .00023343 00000-0 85400-3 0 9995
2 64253 43.0010 71.7034 0001653 278.3284 81.7381 15.27622095 70049
Epoch: Aug 25, 2026 • Age: 25 hours

現在のステータス

高度 489.3 km
遠地点 / 近地点 N/A
速度 7.62 km/s
衛星直下点 -27.39°S, 22.8°W
打ち上げ日 Jun 3, 2025
運用期間 1.2 years
タイプ internet

技術仕様

分類 Payload
質量 575.00 kg
乾燥質量 530.00 kg
総質量 575.00 kg
長さ 0.30 m
直径 4.10 m
スパン 29.00 m
形状 Box + pan
製造者 SPXS
バスタイプ Starlink V2MO
フェーズステータス In Orbit
所有者/国 SPXS/US

Most Searched